Regional Weather Roundup
Issued by NWS Grand Forks, ND

Home | Current Version | Previous Version | Text Only | Print | Product List | Glossary Off
Versions: 1 2 3 4 5 6 7 8 9 10 11 12 13 14 15 16 17 18 19 20 21 22 23 24 25 26 27 28 29 30 31 32 33 34 35 36 37 38 39 40 41 42 43 44 45 46 47 48 49 50

000
ASUS43 KFGF 282010
RWRFGF
PRAIRIE TO PINES  WEATHER ROUNDUP
NATIONAL WEATHER SERVICE EASTERN NORTH DAKOTA/GRAND FORKS ND
200 PM CST SAT FEB 28 2015

 **SATELLITE DATA USED TO AUGMENT SKY COVER AT AUTOMATED STATIONS**
 *****  WEATHER ACROSS EASTERN NORTH DAKOTA  *****

CITY           SKY/WX    TMP DP  RH WIND       PRES   REMARKS
GRAND FORKS    CLOUDY    21  12  68 S18       30.12  WCI   6
GRAND FRKS AFB CLOUDY    22  11  61 SW18      30.11F WCI   8
GRAND FRKS NWS   N/A     21 N/A N/A SW22        N/A  WCI   5
DEVILS LAKE    PTSUNNY   18  10  73 W13       30.06F WCI   4
FARGO          CLOUDY    26  13  57 S22G30    30.17  WCI  12
WAHPETON ARPT  PTCLDY    25  12  58 S20       30.20F WCI  11
$$

 ***** WEATHER ACROSS CENTRAL AND WESTERN NORTH DAKOTA  *****

CITY           SKY/WX    TMP DP  RH WIND       PRES   REMARKS
BISMARCK       PTSUNNY   21   6  52 NW17      30.13  WCI   7
MINOT          SUNNY     10   0  63 W22       30.11  WCI -10
JAMESTOWN      CLOUDY    22  12  65 W12       30.08  WCI  10
MINOT AFB      MOSUNNY    9   3  75 NW20G25   30.12S WCI -10
GARRISON         N/A     10   3  73 NW18      30.12F WCI  -8
WILLISTON      PTSUNNY   15   2  56 NW16      30.17  WCI  -1
DICKINSON      PTSUNNY   19   3  49 NW22      30.08  WCI   2
HETTINGER      MOSUNNY   19   3  49 NW23      30.11  WCI   2
$$

 *****  OTHER AIRPORT OBSERVATIONS IN OUR AREA  *****

CITY           SKY/WX    TMP DP  RH WIND       PRES   REMARKS
WALHALLA         N/A     19   9  63 W7        30.09S WCI  10
GRAFTON AIRPOR NOT AVBL
VALLEY CITY AR CLOUDY    19  14  79 SW20      30.09F WCI   4
CANDO          FAIR      18   7  62 W10       30.06S WCI   6
CAVALIER APRT  FAIR      19  10  68 S8        30.09F WCI   9
GWINNER        CLEAR     27  14  59 SW21      30.14F WCI  13
SHEYENNE NWR     N/A     27  13  54 S18       29.95S WCI  14
ROLLA          FAIR      14   9  79 NW12      30.03F WCI   0
 ***** THE ABOVE OBSERVATIONS ARE NON NWS ARE NOT QUALITY
       CONTROLLED AND MAY MIS-REPORT RAIN FOR SNOW...
$$

  *****  WEATHER ACROSS NORTHERN MINNESOTA  *****

CITY           SKY/WX    TMP DP  RH WIND       PRES   REMARKS
FLAG ISLAND    PTSUNNY   16   7  67 S9        30.12F WCI   4
WARROAD        PTSUNNY   21   9  58 SW10      30.13F WCI  10
ROSEAU         PTSUNNY   21  10  63 S14       30.12F WCI   8
HALLOCK        NOT AVBL
THF RVR FALLS  CLOUDY    21  12  68 S20       30.13F WCI   6
BAUDETTE       PTSUNNY   21   5  50 S14       30.14  WCI   8
WASKISH        FAIR      27   5  39 S6G18     30.17F WCI  20
CROOKSTON      MOSUNNY   23  16  74 S22       30.16F WCI   8
STEPHEN NDAWN    N/A     19  12  73 S21         N/A  WCI   3
GREENBUSH NDAW   N/A     19  12  73 MISG        N/A
$$
  *****  WEATHER ACROSS CENTRAL AND WEST MINNESOTA  *****

CITY           SKY/WX    TMP DP  RH WIND       PRES   REMARKS
FOSSTON        MOSUNNY   25  12  58 S24       30.14F WCI   9
BEMIDJI        MOSUNNY   24   4  43 S15G21    30.16F WCI  11
PARK RAPIDS    PTSUNNY   23   4  44 S22G33    30.20  WCI   8
ELBOW LAKE     MOCLDY    23  13  67 S25       30.22F WCI   6
WADENA         SUNNY     19   9  63 S16       30.23F WCI   5
DETROIT LAKES  MOSUNNY   25  12  58 S17G23    30.18F WCI  11
MOORHEAD       PTSUNNY   27  12  54 S20G25    30.18F WCI  13
FERGUS FALLS   SUNNY     25  10  54 S22G30    30.25F WCI  10
MORRIS MN      MOSUNNY   23  10  58 S23G31    30.25F WCI   7
STAPLES        PTSUNNY   21   3  45 S20G25    30.26F WCI   6
$$
  *****  WEATHER ELSEWHERE ACROSS MINNESOTA  *****

CITY           SKY/WX    TMP DP  RH WIND       PRES   REMARKS
DULUTH         SUNNY     20   1  43 SW18G25   30.30  WCI   5
INTRNTL FALLS  MOSUNNY   25   1  35 SW16G25   30.17  WCI  12
ELY            NOT AVBL
CLOQUET        SUNNY     19   0  42 S15       30.31F WCI   5
WHEATON        MOSUNNY   21  10  63 S20G28    30.24F WCI   6
BRAINERD       SUNNY     20   3  48 SW23G30   30.29  WCI   3
HIBBING        SUNNY     22  -2  35 SW14G23   30.25  WCI   9
ALEXANDRIA     CLOUDY    21   9  59 S20       30.25  WCI   6
SAINT CLOUD    SUNNY     21   4  47 S20G31    30.35  WCI   6
MINNEAPOLIS    SUNNY     20   3  48 SE16      30.43  WCI   6
$$

  *****  WEATHER ACROSS SOUTH DAKOTA  *****

CITY           SKY/WX    TMP DP  RH WIND       PRES   REMARKS
SIOUX FALLS    PTSUNNY   23  13  65 S22G31    30.25F WCI   8
BROOKINGS      NOT AVBL
WATERTOWN      MOSUNNY   22  12  65 S23       30.17  WCI   6
HURON          SUNNY     28  13  53 S15       30.18  WCI  16
SISSETON         N/A     24  13  62 SW20      30.19  WCI  10
ABERDEEN       SUNNY     26  14  60 SW18      30.15  WCI  13
MITCHELL       PTSUNNY   30   9  41 S16G25    30.21  WCI  19
PIERRE         SUNNY     33   8  35 NW16G22   30.11  WCI  23
MOBRIDGE       CLOUDY    25  14  63 NW15      30.09  WCI  13
RAPID CITY     SUNNY     22  12  65 N18G28    30.09  WCI   7
$$

  *****  SOME WEATHER IN NEARBY STATES *****

CITY           SKY/WX    TMP DP  RH WIND       PRES   REMARKS
GLASGOW MT     SUNNY     20   2  45 NW14      30.16F WCI   7
GREAT FALLS MT PTSUNNY   20   8  60 W5        30.15F WCI  13
CHEYENNE WY    PTSUNNY   21  11  65 NE8       29.91F WCI  11
SCOTTSBLUFF NE MOSUNNY   31  12  45 VRB5      30.03
OMAHA NE       LGT SNOW  22  14  71 S13       30.40F FOG     WCI  10
DES MOINES IA  CLOUDY    23   9  55 S8        30.44  WCI  14
DAVENPORT IA   SUNNY     18  -1  43 SE6       30.55  WCI  10
CHICAGO IL     MOSUNNY   20  -2  38 S7        30.59  WCI  11
EAU CLAIRE WI  SUNNY     16   0  49 S10       30.47  WCI   4
LA CROSSE WI   SUNNY     16   1  51 S10       30.55  WCI   4
$$

  *****  SOME NATIONAL WEATHER *****

CITY           SKY/WX    TMP DP  RH WIND       PRES   REMARKS
LA GUARDIA NY  MOSUNNY   28   2  32 NW3       30.76
RALEIGH NC     PTSUNNY   35  13  40 NE8       30.70
ATLANTA GA     PTSUNNY   56  29  35 E8        30.48
NEW ORLEANS LA MOSUNNY   61  44  53 E8        30.31
OKLAHOMA CITY  FRZ DRZL  26  21  81 CALM      30.32F
ALBUQUERQUE NM PTSUNNY   33  24  69 NW5       29.93F
SALT LAKE CITY CLOUDY    44  20  38 VRB5      29.69
LOS ANGELES CA PTSUNNY   60  45  57 W15       29.87
BOISE ID       CLOUDY    40  33  76 NW8       29.85
SEATTLE WA     MOSUNNY   51  26  37 N15       30.20
$$

*** WEATHER ACROSS MANITOBA...SASKATCHEWAN AND ONTARIO ***
                ***ONTARIO***

CITY           SKY/WX    TMP DP  RH WIND       PRES   REMARKS
GERALDTON      CLOUDY    21  -4  33 SW17G25   30.23F WCI   7
THUNDER BAY    CLOUDY    23   9  54 S12       30.31F WCI  12
SIOUX LOOKOUT  CLOUDY    21   1  42 SW12      30.13F WCI   9
TORONTO        MOSUNNY   23   5  46 SW8       30.69F WCI  14
BIG TROUT LK   FLURRIES  14   5  67 W10G20    29.99S WCI   1
PICKLE LAKE    PTSUNNY   18   0  45 W15G26    30.07F WCI   3
DRYDEN         PTSUNNY   23   0  36 SW15G25   30.11F WCI  10
KENORA         PTSUNNY   18   3  53 S13       30.09F WCI   4
$$
                *** MANITOBA***

CITY           SKY/WX    TMP DP  RH WIND       PRES   REMARKS
BRANDON        MOSUNNY   10   1  67 W17       30.08F WCI  -7
DAUPHIN        MOSUNNY   12   1  62 W16G22    30.05F WCI  -4
ISLAND LAKE    PTSUNNY   19   5  53 W13G22    29.96F WCI   7
PILOT MOUND    NOT AVBL
THE PAS        MOSUNNY   18   3  53 W16       29.97F WCI   3
THOMPSON       FLURRIES  19   5  53 SW16      29.83F WCI   5
WINNIPEG       FLURRIES  14   5  67 S10       30.11F WCI   1
LYNN LAKE      MOSUNNY   14   5  67 W10       29.83S WCI   1
CHURCHILL      MOSUNNY    1  -4  78 NW23      29.79R WCI -21
GILLAM         PTSUNNY   21   5  49 W21       29.79F WCI   6
$$
                ***SASKATCHEWAN***

CITY           SKY/WX    TMP DP  RH WIND       PRES   REMARKS
ESTEVAN        FLURRIES   7   1  78 NW18      30.13F WCI -12
KINDERSLEY     NOT AVBL
LLOYDMINSTER   FLURRIES  18  12  79 W18       30.04F WCI   2
PRINCE ALBERT  FLURRIES  14   5  67 S5        30.00F WCI   6
REGINA         CLOUDY     9   7  92 W17       30.12F WCI -10
YORKTON        SUNNY     10   3  72 W14       30.06F WCI  -5
N. BATTLEFORD  MOSUNNY   14   7  73 W12       30.08F WCI   0
LA RONGE       FLURRIES  18  10  73 W10       29.95F WCI   6
SASKATOON      PTSUNNY   12   3  67 SW12      30.08F WCI  -2
SWIFT CURRENT  SUNNY     16   7  67 W21       30.07F WCI  -2
$$
NOTE: THESE ARE AUTOMATED STATIONS WITH LIMITED QUALITY CONTROL
      "FAIR" INDICATES FEW OR NO CLOUDS BELOW 12,000 FEET WITH NO
      SIGNIFICANT WEATHER AND/OR OBSTRUCTIONS TO VISIBILITY.
      SKY/WX - SKY CONDITION AND SIGNIFICANT WEATHER.
      TMP - AIR TEMPERATURE.    DP   - DEWPOINT TEMPERATURE.
      RH  - RELATIVE HUMIDITY.  PRES - PRESSURE.
      HX  - HEAT INDEX.         WCI  - WIND CHILL INDEX.
$


USA.gov is the U.S. government's official web portal to all federal, state and local government web resources and services.